26P/Grigg-Skjellerup (2023)

Japanese version
Home page
Updated on November 27, 2024

---------------------------------------------------------------------

* Profile

* Orbital Elements

Epoch 2024 Oct. 17.0 TT = JDT 2460600.5
T 2023 Dec. 25.32939 TT                                 Rudenko
q   1.0837953            (2000.0)            P               Q
n   0.18824034     Peri.    2.13622     -0.83368172     +0.51491086
a   3.0152796      Node   211.53773     -0.51216521     -0.85608897
e   0.6405656      Incl.   22.43329     -0.20654683     +0.04448009
P   5.24
>From 252 observations 2013 Jan. 3-2024 Sept. 1, mean residual 0".7.
     Nongravitational parameters A1 = +0.01, A2 = -0.0003.

* Finding Charts

* Magnitudes Graph

        H = 16.5  G = 0.15                        [   ,-80]  (             - 2023 Oct.  6)
        m1 = 16.2 + 5 log d + 10.0 log r(t - 20)  [-80,-25]  (2023 Oct.  6 - 2023 Nov. 30)
        m1 = 8.0 + 5 log d + 100 log r(t - 20)    [-25, 65]  (2023 Nov. 30 - 2024 Feb. 28)
        m1 = 16.2 + 5 log d + 10.0 log r(t - 20)  [ 65,180]  (2024 Feb. 28 - 2024 June 22)
        H = 16.5  G = 0.15                        [180,   ]  (2024 June 22 -             )

---------------------------------------------------------------------

The orbital elements are published on M.P.E.C. 2024-R10.
The charts are made with StellaNavigator Ver.10 (AstroArts).
The magnitudes graphs are made with Comet for Windows.

---------------------------------------------------------------------

Copyright(C) Seiichi Yoshida (comet@aerith.net). All rights reserved.